Location: Mentone
(34.5413°N, 85.5351°W)
Time: 02:55:44
(UTC-05:00)

Tiros 1 despin weight - All Passes

Search period start: 25 August 2016 00:00
Search period end: 04 September 2016 00:00
Orbit: 596 x 645 km, 48.2° (Epoch: 24 August)

Date Brightness Start Highest point End Pass type
(mag) Time Alt. Az. Time Alt. Az. Time Alt. Az.
25 Aug - 11:28:53 10° SSE 11:31:30 15° SE 11:34:09 10° E daylight
25 Aug - 13:07:56 10° SW 13:12:38 84° NW 13:17:22 10° NE daylight
25 Aug - 14:51:02 10° WNW 14:54:47 23° NNW 14:58:32 10° NNE daylight
25 Aug - 16:35:02 10° NW 16:37:45 15° N 16:40:26 10° NE daylight
25 Aug - 18:16:51 10° NW 18:20:41 24° NNE 18:24:27 10° ENE daylight
25 Aug - 19:58:05 10° NW 20:02:44 85° SW 20:07:18 10° SE visible
25 Aug - 21:41:56 10° WSW 21:43:45 12° SW 21:45:34 10° SSW visible
26 Aug - 11:44:19 10° SSW 11:48:27 32° SE 11:52:37 10° ENE daylight
26 Aug - 13:25:28 10° WSW 13:29:58 45° NNW 13:34:30 10° NE daylight
26 Aug - 15:09:20 10° NW 15:12:30 17° NNW 15:15:40 10° NNE daylight
26 Aug - 16:52:37 10° NNW 16:55:35 16° N 16:58:31 10° NE daylight
26 Aug - 18:33:53 10° NW 18:38:14 37° NNE 18:42:31 10° E daylight
26 Aug - 20:15:32 10° WNW 20:19:53 40° SW 20:24:09 10° SSE visible
27 Aug - 12:00:54 10° SW 12:05:32 67° SE 12:10:13 10° ENE daylight
27 Aug - 13:43:24 10° W 13:47:28 28° NNW 13:51:32 10° NE daylight
27 Aug - 15:27:33 10° NW 15:30:19 15° N 15:33:04 10° NNE daylight
27 Aug - 17:09:49 10° NNW 17:13:21 20° NNE 17:16:49 10° ENE daylight
27 Aug - 18:50:58 10° NW 18:55:38 67° NE 19:00:11 10° ESE daylight
27 Aug - 20:33:36 10° W 20:36:51 19° SW 20:40:05 10° S visible
28 Aug - 10:37:59 10° S 10:41:29 21° SE 10:45:02 10° E daylight
28 Aug - 12:18:09 10° WSW 12:22:47 63° NW 12:27:28 10° NE daylight
28 Aug - 14:01:39 10° WNW 14:05:07 20° NNW 14:08:36 10° NNE daylight
28 Aug - 15:45:22 10° NNW 15:48:09 15° N 15:50:56 10° NE daylight
28 Aug - 17:26:52 10° NW 17:30:59 29° NNE 17:35:02 10° E daylight
28 Aug - 19:08:15 10° WNW 19:12:51 61° SW 19:17:23 10° SE daylight
29 Aug - 10:54:04 10° SSW 10:58:30 45° SE 11:02:58 10° ENE daylight
29 Aug - 12:35:53 10° W 12:40:12 35° NNW 12:44:33 10° NE daylight
29 Aug - 14:19:57 10° NW 14:22:53 16° N 14:25:50 10° NNE daylight
29 Aug - 16:02:45 10° NNW 16:05:58 18° NNE 16:09:10 10° NE daylight
29 Aug - 17:43:55 10° NW 17:48:28 48° NNE 17:52:56 10° ESE daylight
29 Aug - 19:25:55 10° WNW 19:29:55 29° SW 19:33:52 10° SSE daylight
30 Aug - 09:32:12 10° SSE 09:34:34 14° SE 09:36:57 10° E daylight
30 Aug - 11:10:59 10° SW 11:15:39 88° NNW 11:20:22 10° NE daylight
30 Aug - 12:53:59 10° WNW 12:57:46 24° NNW 13:01:35 10° NNE daylight
30 Aug - 14:38:00 10° NW 14:40:43 15° N 14:43:27 10° NE daylight
30 Aug - 16:19:51 10° NNW 16:23:41 24° NNE 16:27:28 10° ENE daylight
30 Aug - 18:01:04 10° NW 18:05:47 89° SSW 18:10:24 10° SE daylight
30 Aug - 19:44:38 10° W 19:46:50 13° SW 19:49:01 10° SSW visible
31 Aug - 09:47:28 10° SSW 09:51:29 30° SE 09:55:34 10° ENE daylight
31 Aug - 11:28:28 10° WSW 11:32:58 47° NNW 11:37:31 10° NE daylight
31 Aug - 13:12:16 10° NW 13:15:29 18° NNW 13:18:42 10° NNE daylight
31 Aug - 14:55:36 10° NNW 14:58:33 16° N 15:01:31 10° NE daylight
31 Aug - 16:36:53 10° NW 16:41:14 36° NNE 16:45:33 10° E daylight
31 Aug - 18:18:29 10° WNW 18:22:56 43° SW 18:27:17 10° SSE daylight
01 Sep - 10:03:59 10° SW 10:08:34 63° SE 10:13:12 10° ENE daylight
01 Sep - 11:46:23 10° W 11:50:27 29° NNW 11:54:34 10° NE daylight
01 Sep - 13:30:30 10° NW 13:33:17 15° N 13:36:05 10° NNE daylight
01 Sep - 15:12:49 10° NNW 15:16:19 20° NNE 15:19:49 10° ENE daylight
01 Sep - 16:53:58 10° NW 16:58:39 64° NE 17:03:16 10° ESE daylight
01 Sep - 18:36:28 10° W 18:39:55 21° SW 18:43:19 10° S daylight
02 Sep - 08:41:11 10° S 08:44:32 20° SE 08:47:55 10° E daylight
02 Sep - 10:21:11 10° WSW 10:25:47 66° NW 10:30:28 10° NE daylight
02 Sep - 12:04:36 10° WNW 12:08:06 20° NNW 12:11:37 10° NNE daylight
02 Sep - 13:48:21 10° NNW 13:51:08 15° N 13:53:55 10° NE daylight
02 Sep - 15:29:53 10° NW 15:33:58 28° NNE 15:38:02 10° E daylight
02 Sep - 17:11:13 10° WNW 17:15:53 65° SW 17:20:28 10° SE daylight
03 Sep - 08:57:11 10° SSW 09:01:31 42° SE 09:05:56 10° ENE daylight
03 Sep - 10:38:53 10° W 10:43:12 37° NNW 10:47:33 10° NE daylight
03 Sep - 12:22:54 10° NW 12:25:52 16° N 12:28:50 10° NNE daylight
03 Sep - 14:05:45 10° NNW 14:08:56 18° NNE 14:12:08 10° NE daylight
03 Sep - 15:46:55 10° NW 15:51:28 46° NNE 15:55:57 10° ESE daylight
03 Sep - 17:28:50 10° WNW 17:32:58 31° SW 17:37:01 10° SSE daylight
